�������l�o���
Date,Time,MP-1(��Sv/h),MP-2(��Sv/h),MP-3(��Sv/h),MP-4(��Sv/h),MP-5(��Sv/h),MP-6(��Sv/h),MP-7(��Sv/h),MP-8(��Sv/h),����,����(m/s),���J
2020/01/07,00:00,0.707,1.023,0.686,1.289,0.901,0.403,0.713,0.677,�k,6.6,��
2020/01/07,00:10,0.704,1.021,0.686,1.288,0.900,0.405,0.713,0.676,�k,5.8,��
2020/01/07,00:20,0.704,1.021,0.684,1.289,0.899,0.406,0.712,0.676,�k�k��,6.6,��
2020/01/07,00:30,0.706,1.026,0.688,1.287,0.901,0.405,0.712,0.677,�k�k��,5.8,��
2020/01/07,00:40,0.707,1.020,0.685,1.289,0.902,0.404,0.713,0.675,�k�k��,4.9,��
2020/01/07,00:50,0.705,1.021,0.686,1.289,0.899,0.404,0.712,0.676,�k�k��,5.2,��
2020/01/07,01:00,0.706,1.020,0.684,1.288,0.900,0.405,0.714,0.676,�k�k��,5.0,��
2020/01/07,01:10,0.706,1.022,0.687,1.288,0.899,0.404,0.712,0.676,�k�k��,6.6,��
2020/01/07,01:20,0.706,1.020,0.687,1.288,0.899,0.405,0.713,0.676,�k,6.7,��
2020/01/07,01:30,0.705,1.020,0.684,1.288,0.899,0.404,0.713,0.676,�k�k��,6.1,��
2020/01/07,01:40,0.705,1.023,0.687,1.289,0.898,0.405,0.712,0.678,�k�k��,6.1,��
2020/01/07,01:50,0.707,1.022,0.686,1.288,0.897,0.405,0.711,0.674,�k�k��,6.1,��
2020/01/07,02:00,0.706,1.023,0.686,1.288,0.897,0.404,0.712,0.676,�k�k��,6.1,��
2020/01/07,02:10,0.707,1.021,0.686,1.286,0.899,0.404,0.712,0.677,�k�k��,5.8,��
2020/01/07,02:20,0.707,1.022,0.686,1.288,0.900,0.404,0.711,0.676,�k�k��,4.3,��
2020/01/07,02:30,0.707,1.024,0.684,1.288,0.899,0.404,0.711,0.674,�k�k��,4.7,��
2020/01/07,02:40,0.705,1.022,0.686,1.286,0.899,0.404,0.712,0.676,�k�k��,5.6,��
2020/01/07,02:50,0.704,1.024,0.684,1.290,0.899,0.403,0.711,0.677,�k�k��,5.5,��
2020/01/07,03:00,0.705,1.021,0.686,1.289,0.898,0.404,0.712,0.677,�k�k��,5.8,��
2020/01/07,03:10,0.706,1.024,0.688,1.288,0.898,0.404,0.712,0.677,�k��,5.2,��
2020/01/07,03:20,0.705,1.022,0.685,1.290,0.900,0.403,0.712,0.676,�k��,4.4,��
2020/01/07,03:30,0.706,1.022,0.684,1.287,0.898,0.405,0.713,0.674,�k��,4.7,��
2020/01/07,03:40,0.707,1.021,0.685,1.290,0.898,0.405,0.712,0.677,�k��,4.7,��
2020/01/07,03:50,0.706,1.023,0.686,1.287,0.898,0.404,0.710,0.675,�k�k��,4.9,��
2020/01/07,04:00,0.704,1.022,0.686,1.286,0.900,0.403,0.712,0.676,�k�k��,6.1,��
2020/01/07,04:10,0.706,1.022,0.687,1.288,0.899,0.405,0.711,0.676,�k,5.0,��
2020/01/07,04:20,0.704,1.022,0.685,1.288,0.898,0.405,0.713,0.675,�k,4.5,��
2020/01/07,04:30,0.703,1.022,0.686,1.291,0.897,0.405,0.712,0.677,�k�k��,2.7,��
2020/01/07,04:40,0.705,1.021,0.687,1.289,0.897,0.405,0.712,0.676,�k,5.5,��
2020/01/07,04:50,0.704,1.021,0.685,1.290,0.898,0.406,0.712,0.676,�k,5.0,��
2020/01/07,05:00,0.706,1.021,0.684,1.289,0.900,0.406,0.710,0.676,�k�k��,3.8,��
2020/01/07,05:10,0.707,1.024,0.686,1.289,0.899,0.403,0.710,0.677,�k�k��,4.0,��
2020/01/07,05:20,0.704,1.022,0.686,1.290,0.900,0.403,0.710,0.676,�k�k��,4.3,��
2020/01/07,05:30,0.706,1.023,0.685,1.288,0.898,0.403,0.711,0.676,�k�k��,3.8,��
2020/01/07,05:40,0.703,1.023,0.685,1.289,0.900,0.403,0.711,0.676,�k�k��,3.6,��
2020/01/07,05:50,0.705,1.023,0.687,1.287,0.900,0.404,0.711,0.676,�k�k��,3.3,��
2020/01/07,06:00,0.704,1.022,0.686,1.286,0.899,0.405,0.711,0.675,�k�k��,4.2,��
2020/01/07,06:10,0.706,1.022,0.686,1.289,0.898,0.404,0.710,0.675,�k�k��,4.1,��
2020/01/07,06:20,0.705,1.022,0.685,1.289,0.898,0.403,0.712,0.675,�k�k��,4.6,��
2020/01/07,06:30,0.704,1.022,0.685,1.285,0.897,0.403,0.711,0.677,�k�k��,4.9,��
2020/01/07,06:40,0.706,1.022,0.685,1.288,0.898,0.405,0.711,0.676,�k�k��,4.9,��
2020/01/07,06:50,0.705,1.023,0.685,1.287,0.898,0.405,0.709,0.676,�k��,4.4,��
2020/01/07,07:00,0.704,1.022,0.685,1.288,0.897,0.405,0.710,0.675,�k��,4.3,��
2020/01/07,07:10,0.706,1.020,0.686,1.288,0.898,0.404,0.711,0.676,�k��,4.2,��
2020/01/07,07:20,0.704,1.020,0.684,1.287,0.899,0.403,0.711,0.675,�k��,4.1,��
2020/01/07,07:30,0.704,1.018,0.684,1.287,0.899,0.403,0.710,0.674,�k��,4.3,��
2020/01/07,07:40,0.705,1.023,0.685,1.287,0.899,0.402,0.710,0.675,�k�k��,4.5,��
2020/01/07,07:50,0.704,1.022,0.685,1.287,0.897,0.404,0.711,0.676,�k��,4.6,��
2020/01/07,08:00,0.704,1.022,0.686,1.288,0.898,0.402,0.711,0.677,�k��,5.0,��
2020/01/07,08:10,0.707,1.021,0.684,1.286,0.897,0.404,0.712,0.676,�k�k��,5.8,��
2020/01/07,08:20,0.705,1.019,0.685,1.287,0.898,0.405,0.712,0.676,�k�k��,5.8,��
2020/01/07,08:30,0.705,1.022,0.686,1.289,0.900,0.405,0.712,0.676,�k�k��,6.0,��
2020/01/07,08:40,0.703,1.023,0.684,1.289,0.897,0.405,0.710,0.676,�k��,4.4,��
2020/01/07,08:50,0.706,1.023,0.685,1.287,0.898,0.404,0.712,0.677,�k�k��,3.5,��
2020/01/07,09:00,0.706,1.021,0.686,1.287,0.898,0.404,0.713,0.677,�k�k��,4.2,��
2020/01/07,09:10,0.707,1.019,0.682,1.289,0.899,0.403,0.713,0.677,�k�k��,4.9,��
2020/01/07,09:20,0.707,1.021,0.682,1.291,0.899,0.404,0.712,0.678,�k�k��,4.0,��
2020/01/07,09:30,0.706,1.020,0.683,1.289,0.901,0.403,0.713,0.677,�k,3.8,��
2020/01/07,09:40,0.709,1.020,0.686,1.291,0.896,0.404,0.714,0.675,�k�k��,4.4,��
2020/01/07,09:50,0.707,1.020,0.686,1.289,0.899,0.403,0.713,0.676,�k,4.3,��
2020/01/07,10:00,0.706,1.021,0.686,1.289,0.897,0.406,0.714,0.677,�k�k��,4.6,��
2020/01/07,10:10,0.708,1.021,0.686,1.290,0.899,0.405,0.710,0.676,�k,4.7,��
2020/01/07,10:20,0.707,1.020,0.684,1.291,0.900,0.404,0.712,0.677,�k�k��,4.6,��
2020/01/07,10:30,0.708,1.021,0.684,1.291,0.898,0.403,0.709,0.677,�k,4.4,��
2020/01/07,10:40,0.708,1.017,0.681,1.287,0.902,0.405,0.711,0.676,�k,4.0,��
2020/01/07,10:50,0.707,1.021,0.685,1.290,0.901,0.404,0.710,0.677,�k,3.3,��
2020/01/07,11:00,0.708,1.021,0.686,1.288,0.902,0.405,0.711,0.677,�k,4.2,��
2020/01/07,11:10,0.708,1.021,0.688,1.289,0.899,0.404,0.712,0.677,�k,4.2,��
2020/01/07,11:20,0.707,1.020,0.686,1.290,0.902,0.405,0.711,0.676,�k,4.0,��
2020/01/07,11:30,0.708,1.020,0.687,1.291,0.901,0.404,0.709,0.677,�k,3.6,��
2020/01/07,11:40,0.709,1.020,0.688,1.289,0.901,0.405,0.712,0.676,�k,3.2,��
2020/01/07,11:50,0.710,1.020,0.686,1.292,0.902,0.404,0.710,0.677,�k�k��,3.3,��
2020/01/07,12:00,0.709,1.022,0.686,1.288,0.900,0.403,0.711,0.676,�k�k��,3.5,��
2020/01/07,12:10,0.707,1.020,0.686,1.290,0.902,0.405,0.713,0.675,�k�k��,3.0,��
2020/01/07,12:20,0.706,1.021,0.687,1.291,0.899,0.405,0.712,0.676,�k�k��,3.6,��
2020/01/07,12:30,0.708,1.023,0.687,1.292,0.902,0.403,0.712,0.678,�k,2.8,��
2020/01/07,12:40,0.709,1.022,0.686,1.288,0.902,0.405,0.712,0.679,�k�k��,2.1,��
2020/01/07,12:50,0.709,1.021,0.687,1.294,0.903,0.406,0.713,0.677,�k�k��,3.1,��
2020/01/07,13:00,0.709,1.023,0.687,1.293,0.903,0.404,0.711,0.677,�k�k��,2.6,��
2020/01/07,13:10,0.709,1.019,0.688,1.290,0.902,0.405,0.713,0.677,�k�k��,2.6,��
2020/01/07,13:20,0.710,1.023,0.689,1.291,0.902,0.404,0.711,0.678,�k��,2.5,��
2020/01/07,13:30,0.709,1.021,0.686,1.290,0.903,0.405,0.711,0.677,�k�k��,2.9,��
2020/01/07,13:40,0.709,1.020,0.686,1.290,0.902,0.405,0.711,0.677,�k�k��,2.7,��
2020/01/07,13:50,0.707,1.022,0.686,1.290,0.903,0.406,0.713,0.677,�k�k��,2.4,��
2020/01/07,14:00,0.709,1.021,0.686,1.290,0.903,0.405,0.711,0.675,�k�k��,2.4,��
2020/01/07,14:10,0.708,1.023,0.686,1.291,0.904,0.407,0.712,0.675,�k�k��,2.1,��
2020/01/07,14:20,0.706,1.022,0.686,1.291,0.902,0.405,0.711,0.677,�k�k��,1.9,��
2020/01/07,14:30,0.708,1.021,0.687,1.291,0.902,0.405,0.711,0.676,�k��,1.5,��
2020/01/07,14:40,0.707,1.021,0.688,1.290,0.902,0.404,0.711,0.676,�k�k��,1.1,��
2020/01/07,14:50,0.706,1.023,0.687,1.288,0.901,0.406,0.710,0.678,���k��,1.0,��
2020/01/07,15:00,0.707,1.023,0.687,1.291,0.901,0.405,0.713,0.679,�쓌,1.4,��
2020/01/07,15:10,0.708,1.023,0.688,1.291,0.901,0.406,0.711,0.677,���k��,0.9,��
2020/01/07,15:20,0.707,1.019,0.687,1.289,0.903,0.405,0.711,0.676,��쓌,0.5,��
2020/01/07,15:30,0.706,1.020,0.686,1.290,0.901,0.406,0.714,0.678,���쓌,1.2,��
2020/01/07,15:40,0.708,1.021,0.688,1.288,0.902,0.404,0.712,0.677,��쐼,1.3,��
2020/01/07,15:50,0.707,1.024,0.688,1.290,0.902,0.405,0.711,0.678,��,0.8,��
2020/01/07,16:00,0.706,1.023,0.686,1.291,0.902,0.406,0.712,0.676,��쐼,1.1,��
2020/01/07,16:10,0.709,1.023,0.687,1.289,0.901,0.406,0.713,0.675,��쐼,0.8,��
2020/01/07,16:20,0.706,1.024,0.688,1.290,0.901,0.407,0.714,0.677,��,0.8,��
2020/01/07,16:30,0.709,1.025,0.685,1.288,0.902,0.407,0.713,0.677,��쐼,0.9,��
2020/01/07,16:40,0.705,1.025,0.687,1.289,0.901,0.407,0.712,0.676,�쐼,0.6,��
2020/01/07,16:50,0.706,1.023,0.687,1.291,0.900,0.406,0.712,0.677,��쐼,0.8,��
2020/01/07,17:00,0.708,1.024,0.688,1.286,0.902,0.406,0.713,0.678,��,0.5,��
2020/01/07,17:10,0.707,1.025,0.687,1.288,0.901,0.406,0.713,0.676,��쐼,0.8,��
2020/01/07,17:20,0.708,1.022,0.687,1.289,0.900,0.406,0.712,0.678,��쐼,0.6,�L
2020/01/07,17:30,0.707,1.025,0.689,1.290,0.901,0.406,0.713,0.676,�쐼,0.8,�L
2020/01/07,17:40,0.707,1.025,0.690,1.290,0.903,0.404,0.713,0.676,��,1.7,�L
2020/01/07,17:50,0.710,1.025,0.689,1.292,0.903,0.408,0.712,0.677,��,3.8,�L
2020/01/07,18:00,0.709,1.027,0.691,1.292,0.903,0.409,0.712,0.677,��쐼,2.9,�L
2020/01/07,18:10,0.710,1.027,0.692,1.292,0.904,0.409,0.713,0.678,��쐼,3.5,�L
2020/01/07,18:20,0.709,1.025,0.690,1.295,0.902,0.409,0.714,0.677,��쐼,4.4,�L
2020/01/07,18:30,0.710,1.023,0.691,1.294,0.904,0.409,0.713,0.677,��쐼,4.5,�L
2020/01/07,18:40,0.708,1.022,0.691,1.292,0.897,0.409,0.713,0.677,�쐼,4.7,�L
2020/01/07,18:50,0.707,1.022,0.688,1.291,0.899,0.408,0.711,0.675,��쐼,5.2,�L
2020/01/07,19:00,0.707,1.021,0.688,1.290,0.897,0.408,0.711,0.676,��쐼,4.9,�L
2020/01/07,19:10,0.705,1.017,0.686,1.288,0.896,0.408,0.713,0.676,��쐼,4.9,�L
2020/01/07,19:20,0.705,1.017,0.688,1.287,0.897,0.409,0.712,0.676,��쐼,3.6,�L
2020/01/07,19:30,0.704,1.015,0.688,1.289,0.896,0.409,0.711,0.674,�쐼,3.3,�L
2020/01/07,19:40,0.705,1.014,0.687,1.287,0.896,0.407,0.713,0.676,��쐼,3.8,�L
2020/01/07,19:50,0.704,1.016,0.685,1.286,0.893,0.407,0.711,0.674,��쐼,3.8,�L
2020/01/07,20:00,0.705,1.011,0.686,1.286,0.893,0.409,0.711,0.675,��쐼,3.9,�L
2020/01/07,20:10,0.704,1.013,0.688,1.283,0.892,0.408,0.711,0.675,��쐼,4.2,�L
2020/01/07,20:20,0.703,1.010,0.687,1.285,0.893,0.410,0.709,0.675,��쐼,4.0,�L
2020/01/07,20:30,0.703,1.008,0.683,1.281,0.888,0.409,0.710,0.675,��쐼,4.0,�L
2020/01/07,20:40,0.703,1.005,0.682,1.278,0.887,0.409,0.709,0.673,��쐼,3.9,�L
2020/01/07,20:50,0.699,1.000,0.682,1.275,0.885,0.408,0.706,0.673,��쐼,3.8,�L
2020/01/07,21:00,0.697,1.000,0.680,1.271,0.884,0.408,0.705,0.672,��쐼,3.6,�L
2020/01/07,21:10,0.698,0.999,0.682,1.269,0.885,0.409,0.707,0.672,��쐼,3.5,�L
2020/01/07,21:20,0.700,0.998,0.680,1.268,0.882,0.407,0.705,0.671,��쐼,3.8,�L
2020/01/07,21:30,0.699,0.994,0.679,1.266,0.882,0.406,0.707,0.670,��쐼,3.3,�L
2020/01/07,21:40,0.696,0.997,0.678,1.264,0.879,0.407,0.706,0.671,�쐼,3.0,�L
2020/01/07,21:50,0.699,0.995,0.677,1.265,0.879,0.408,0.706,0.673,�쐼,3.0,�L
2020/01/07,22:00,0.696,0.991,0.677,1.261,0.877,0.408,0.704,0.670,�쐼,2.9,�L
2020/01/07,22:10,0.694,0.991,0.676,1.260,0.877,0.408,0.705,0.669,��쐼,3.2,�L
2020/01/07,22:20,0.694,0.990,0.676,1.258,0.877,0.408,0.704,0.670,��쐼,3.4,�L
2020/01/07,22:30,0.693,0.990,0.676,1.255,0.878,0.408,0.704,0.669,��쐼,3.3,�L
2020/01/07,22:40,0.694,0.986,0.675,1.252,0.874,0.407,0.702,0.669,�쐼,3.0,�L
2020/01/07,22:50,0.695,0.985,0.672,1.253,0.870,0.407,0.703,0.667,��쐼,2.9,�L
2020/01/07,23:00,0.692,0.985,0.673,1.248,0.872,0.406,0.702,0.669,��쐼,3.4,�L
2020/01/07,23:10,0.692,0.985,0.670,1.245,0.872,0.405,0.700,0.667,��쐼,3.3,�L
2020/01/07,23:20,0.689,0.983,0.671,1.245,0.869,0.404,0.701,0.667,��쐼,3.1,�L
2020/01/07,23:30,0.690,0.982,0.671,1.244,0.867,0.404,0.701,0.668,��쐼,3.1,�L
2020/01/07,23:40,0.689,0.981,0.670,1.245,0.869,0.405,0.701,0.666,��쐼,2.8,�L
2020/01/07,23:50,0.688,0.980,0.670,1.241,0.866,0.405,0.701,0.666,�쐼,2.8,�L
